H1 CPF 2 NER 2022 7 17 9 198 01 glonass141 H2 1908801 9141 44850 2022 7 17 0 0 0 2022 7 20 23 45 0 900 1 1 0 0 0 1 H9 10 0 59777 0.00000 0 24789196.968 172557.328 6019860.575 10 0 59777 900.00000 0 25345927.296 56992.654 2858040.857 10 0 59777 1800.00000 0 25500252.841 -106168.602 -359310.325 10 0 59777 2700.00000 0 25247027.408 -261219.861 -3569674.339 10 0 59777 3600.00000 0 24594598.230 -352785.462 -6710616.573 10 0 59777 4500.00000 0 23564478.191 -328413.730 -9721006.991 10 0 59777 5400.00000 0 22190482.600 -141048.816 -12542218.521 10 0 59777 6300.00000 0 20517365.726 248724.877 -15119278.926 10 0 59777 7200.00000 0 18599013.843 870762.482 -17401952.573 10 0 59777 8100.00000 0 16496270.421 1743845.833 -19345729.982 10 0 59777 9000.00000 0 14274484.837 2874643.903 -20912704.994 10 0 59777 9900.00000 0 12000887.828 4257192.180 -22072321.588 10 0 59777 10800.00000 0 9741904.096 5872914.660 -22801975.337 10 0 59777 11700.00000 0 7560515.137 7691188.880 -23087457.438 10 0 59777 12600.00000 0 5513783.093 9670431.256 -22923232.550 10 0 59777 13500.00000 0 3650639.342 11759657.877 -22312545.089 10 0 59777 14400.00000 0 2010030.107 13900455.690 -21267352.094 10 0 59777 15300.00000 0 619496.132 16029281.496 -19808084.257 10 0 59777 16200.00000 0 -505755.168 18079992.321 -17963240.188 10 0 59777 17100.00000 0 -1363247.655 19986500.926 -15768822.207 10 0 59777 18000.00000 0 -1963089.539 21685444.865 -13267625.267 10 0 59777 18900.00000 0 -2327289.856 23118756.996 -10508393.438 10 0 59777 19800.00000 0 -2488569.257 24236029.636 -7544861.063 10 0 59777 20700.00000 0 -2488717.406 24996573.266 -4434698.063 10 0 59777 21600.00000 0 -2376568.358 25371083.858 -1238380.696 10 0 59777 22500.00000 0 -2205681.259 25342849.503 1981989.566 10 0 59777 23400.00000 0 -2031825.813 24908446.632 5163895.331 10 0 59777 24300.00000 0 -1910379.932 24077897.719 8245616.824 10 0 59777 25200.00000 0 -1893750.183 22874285.045 11167425.950 10 0 59777 26100.00000 0 -2028924.233 21332837.825 13872737.719 10 0 59777 27000.00000 0 -2355258.521 19499531.925 16309197.231 10 0 59777 27900.00000 0 -2902594.078 17429261.286 18429681.989 10 0 59777 28800.00000 0 -3689779.393 15183657.753 20193201.135 10 0 59777 29700.00000 0 -4723662.035 12828649.955 21565675.559 10 0 59777 30600.00000 0 -5998591.220 10431862.182 22520585.166 10 0 59777 31500.00000 0 -7496452.288 8059960.418 23039472.055 10 0 59777 32400.00000 0 -9187232.278 5776054.302 23112291.022 10 0 59777 33300.00000 0 -11030093.996 3637261.256 22737601.396 10 0 59777 34200.00000 0 -12974915.173 1692532.250 21922596.860 10 0 59777 35100.00000 0 -14964230.263 -19172.149 20682972.563 10 0 59777 36000.00000 0 -16935495.873 -1470281.064 19042631.525 10 0 59777 36900.00000 0 -18823587.224 -2645530.741 17033235.014 10 0 59777 37800.00000 0 -20563423.233 -3542362.630 14693604.294 10 0 59777 38700.00000 0 -22092612.038 -4170785.855 12068983.787 10 0 59777 39600.00000 0 -23354007.203 -4552709.794 9210178.461 10 0 59777 40500.00000 0 -24298068.012 -4720774.582 6172580.745 10 0 59777 41400.00000 0 -24884924.694 -4716728.400 3015104.682 10 0 59777 42300.00000 0 -25086061.111 -4589419.579 -200952.662 10 0 59777 43200.00000 0 -24885543.026 -4392488.197 -3413100.811 10 0 59777 44100.00000 0 -24280738.746 -4181854.881 -6558873.271 10 0 59777 45000.00000 0 -23282500.328 -4013113.594 -9577048.513 10 0 59777 45900.00000 0 -21914795.988 -3938939.671 -12408849.994 10 0 59777 46800.00000 0 -20213807.691 -4006624.155 -14999100.794 10 0 59777 47700.00000 0 -18226530.924 -4255840.339 -17297309.316 10 0 59777 48600.00000 0 -16008934.696 -4716738.746 -19258663.802 10 0 59777 49500.00000 0 -13623758.629 -5408452.894 -20844915.430 10 0 59777 50400.00000 0 -11138039.493 -6338080.644 -22025131.887 10 0 59777 51300.00000 0 -8620470.999 -7500185.729 -22776306.274 10 0 59777 52200.00000 0 -6138707.613 -8876841.789 -23083809.147 10 0 59777 53100.00000 0 -3756725.535 -10438218.070 -22941674.718 10 0 59777 54000.00000 0 -1532351.220 -12143682.887 -22352715.720 10 0 59777 54900.00000 0 484939.362 -13943378.891 -21328464.848 10 0 59777 55800.00000 0 2255859.183 -15780204.031 -19888944.202 10 0 59777 56700.00000 0 3752710.308 -17592114.935 -18062267.612 10 0 59777 57600.00000 0 4960288.461 -19314655.707 -15884083.993 10 0 59777 58500.00000 0 5876255.689 -20883605.543 -13396873.167 10 0 59777 59400.00000 0 6510967.513 -22237633.622 -10649108.473 10 0 59777 60300.00000 0 6886764.037 -23320849.443 -7694303.120 10 0 59777 61200.00000 0 7036757.124 -24085141.309 -4589959.704 10 0 59777 62100.00000 0 7003167.001 -24492204.774 -1396444.070 10 0 59777 63000.00000 0 6835280.578 -24515176.150 1824193.826 10 0 59777 63900.00000 0 6587119.423 -24139803.010 5009428.402 10 0 59777 64800.00000 0 6314917.333 -23365103.317 8097472.362 10 0 59777 65700.00000 0 6074514.980 -22203486.412 11028472.276 10 0 59777 66600.00000 0 5918782.128 -20680331.723 13745662.621 10 0 59777 67500.00000 0 5895176.305 -18833043.635 16196456.444 10 0 59777 68400.00000 0 6043540.535 -16709622.628 18333452.274 10 0 59777 69300.00000 0 6394232.389 -14366812.566 20115338.824 10 0 59777 70200.00000 0 6966662.464 -11867901.230 21507681.310 10 0 59777 71100.00000 0 7768303.193 -9280264.922 22483575.541 10 0 59777 72000.00000 0 8794209.315 -6672758.241 23024158.418 10 0 59777 72900.00000 0 10027070.235 -4113055.938 23118966.113 10 0 59777 73800.00000 0 11437792.677 -1665055.423 22766133.826 10 0 59777 74700.00000 0 12986590.250 613554.032 21972433.590 10 0 59777 75600.00000 0 14624535.855 2673456.391 20753149.354 10 0 59777 76500.00000 0 16295513.784 4475519.955 19131791.158 10 0 59777 77400.00000 0 17938491.713 5992180.467 17139652.976 10 0 59777 78300.00000 0 19490019.433 7208339.619 14815221.494 10 0 59777 79200.00000 0 20886851.263 8121742.079 12203445.719 10 0 59777 80100.00000 0 22068583.434 8742815.428 9354880.146 10 0 59777 81000.00000 0 22980196.463 9093979.685 6324716.635 10 0 59777 81900.00000 0 23574395.803 9208455.150 3171722.633 10 0 59777 82800.00000 0 23813651.817 9128618.390 -42894.372 10 0 59777 83700.00000 0 23671852.137 8903975.518 -3256674.449 10 0 59777 84600.00000 0 23135495.426 8588838.345 -6407121.808 10 0 59777 85500.00000 0 22204374.469 8239801.913 -9432926.097 10 0 59778 0.00000 0 20891718.094 7913130.846 -12275163.696 10 0 59778 900.00000 0 19223783.489 7662165.942 -14878456.121 10 0 59778 1800.00000 0 17238916.294 7534862.471 -17192058.039 10 0 59778 2700.00000 0 14986114.472 7571565.268 -19170857.791 10 0 59778 3600.00000 0 12523157.149 7803116.684 -20776266.127 10 0 59778 4500.00000 0 9914375.750 8249378.722 -21976976.542 10 0 59778 5400.00000 0 7228160.735 8918233.199 -22749581.628 10 0 59778 6300.00000 0 4534308.294 9805103.329 -23079033.082 10 0 59778 7200.00000 0 1901318.137 10893017.802 -22958936.220 10 0 59778 8100.00000 0 -606244.648 12153215.290 -22391673.348 10 0 59778 9000.00000 0 -2930213.586 13546264.281 -21388353.709 10 0 59778 9900.00000 0 -5021007.948 15023651.111 -19968591.279 10 0 59778 10800.00000 0 -6839452.397 16529769.205 -18160115.119 10 0 59778 11700.00000 0 -8358154.100 18004225.475 -15998220.279 10 0 59778 12600.00000 0 -9562381.059 19384366.300 -13525070.540 10 0 59778 13500.00000 0 -10450406.693 20607916.282 -10788867.148 10 0 59778 14400.00000 0 -11033308.314 21615618.244 -7842900.424 10 0 59778 15300.00000 0 -11334230.185 22353762.943 -4744503.512 10 0 59778 16200.00000 0 -11387144.532 22776501.840 -1553929.407 10 0 59778 17100.00000 0 -11235164.958 22847845.601 1666826.174 10 0 59778 18000.00000 0 -10928485.387 22543264.522 4855232.421 10 0 59778 18900.00000 0 -10522033.177 21850824.045 7949437.665 10 0 59778 19800.00000 0 -10072936.731 20771808.295 10889466.423 10 0 59778 20700.00000 0 -9637915.193 19320806.162 13618376.007 10 0 59778 21600.00000 0 -9270700.614 17525256.985 16083350.775 10 0 59778 22500.00000 0 -9019601.070 15424475.268 18236713.596 10 0 59778 23400.00000 0 -8925306.813 13068195.398 20036835.943 10 0 59778 24300.00000 0 -9019031.010 10514696.834 21448930.350 10 0 59778 25200.00000 0 -9321062.440 7828587.165 22445711.241 10 0 59778 26100.00000 0 -9839790.209 5078334.204 23007912.670 10 0 59778 27000.00000 0 -10571241.062 2333648.116 23124654.113 10 0 59778 27900.00000 0 -11499148.688 -337179.566 22793648.042 10 0 59778 28800.00000 0 -12595552.632 -2869871.493 22021245.686 10 0 59778 29700.00000 0 -13821902.692 -5206588.932 20822320.004 10 0 59778 30600.00000 0 -15130623.938 -7298086.262 19219987.621 10 0 59778 31500.00000 0 -16467078.400 -9105507.491 17245174.142 10 0 59778 32400.00000 0 -17771842.954 -10601751.254 14936029.973 10 0 59778 33300.00000 0 -18983209.484 -11772348.211 12337206.457 10 0 59778 34200.00000 0 -20039803.677 -12615814.466 9499004.881 10 0 59778 35100.00000 0 -20883213.281 -13143466.334 6476413.415 10 0 59778 36000.00000 0 -21460515.601 -13378703.957 3328049.490 10 0 59778 36900.00000 0 -21726597.519 -13355793.535 115027.413 10 0 59778 37800.00000 0 -21646169.354 -13118199.122 -3100227.168 10 0 59778 38700.00000 0 -21195386.375 -12716534.254 -6255192.920 10 0 59778 39600.00000 0 -20363007.819 -12206219.917 -9288474.402 10 0 59778 40500.00000 0 -19151042.634 -11644948.293 -12141005.090 10 0 59778 41400.00000 0 -17574852.590 -11090060.224 -14757207.406 10 0 59778 42300.00000 0 -15662706.648 -10595948.343 -17086086.034 10 0 59778 43200.00000 0 -13454803.831 -10211596.980 -19082232.268 10 0 59778 44100.00000 0 -11001804.217 -9978364.116 -20706718.799 10 0 59778 45000.00000 0 -8362928.905 -9928100.460 -21927866.728 10 0 59778 45900.00000 0 -5603707.975 -10081686.302 -22721869.294 10 0 59778 46800.00000 0 -2793470.392 -10448048.896 -23073259.817 10 0 59778 47700.00000 0 -2680.792 -11023702.614 -22975214.565 10 0 59778 48600.00000 0 2699765.610 -11792831.702 -22429684.676 10 0 59778 49500.00000 0 5249177.140 -12727912.337 -21447354.695 10 0 59778 50400.00000 0 7587518.937 -13790847.657 -20047428.816 10 0 59778 51300.00000 0 9665583.428 -14934567.598 -18257249.339 10 0 59778 52200.00000 0 11444788.140 -16105025.582 -16111755.181 10 0 59778 53100.00000 0 12898526.710 -17243507.241 -13652791.579 10 0 59778 54000.00000 0 14013018.128 -18289153.139 -10928285.013 10 0 59778 54900.00000 0 14787620.451 -19181588.460 -7991300.086 10 0 59778 55800.00000 0 15234597.891 -19863548.144 -4898997.565 10 0 59778 56700.00000 0 15378353.361 -20283386.370 -1711514.609 10 0 59778 57600.00000 0 15254161.042 -20397364.358 1509210.259 10 0 59778 58500.00000 0 14906454.481 -20171620.052 4700643.885 10 0 59778 59400.00000 0 14386744.291 -19583736.989 7800872.951 10 0 59778 60300.00000 0 13751254.697 -18623846.711 10749802.426 10 0 59778 61200.00000 0 13058379.628 -17295218.896 13490314.698 10 0 59778 62100.00000 0 12366066.045 -15614314.942 15969367.387 10 0 59778 63000.00000 0 11729234.709 -13610303.067 18139009.328 10 0 59778 63900.00000 0 11197346.509 -11324055.388 19957296.058 10 0 59778 64800.00000 0 10812215.847 -8806668.561 21389088.387 10 0 59778 65700.00000 0 10606162.000 -6117568.987 22406719.990 10 0 59778 66600.00000 0 10600575.036 -3322280.412 22990522.400 10 0 59778 67500.00000 0 10804955.602 -489945.166 23129198.413 10 0 59778 68400.00000 0 11216468.350 2309299.842 22820037.527 10 0 59778 69300.00000 0 11820027.595 5006985.450 22068969.661 10 0 59778 70200.00000 0 12588912.022 7538902.485 20890456.074 10 0 59778 71100.00000 0 13485883.538 9847518.345 19307219.076 10 0 59778 72000.00000 0 14464764.554 11884119.143 17349814.826 10 0 59778 72900.00000 0 15472408.958 13610589.719 15056056.221 10 0 59778 73800.00000 0 16450985.530 15000758.335 12470295.539 10 0 59778 74700.00000 0 17340479.124 16041250.346 9642579.295 10 0 59778 75600.00000 0 18081305.386 16731815.289 6627690.228 10 0 59778 76500.00000 0 18616929.429 17085113.505 3484093.837 10 0 59778 77400.00000 0 18896377.991 17125970.737 272809.180 10 0 59778 78300.00000 0 18876538.488 16890131.749 -2943774.572 10 0 59778 79200.00000 0 18524146.789 16422565.061 -6103112.835 10 0 59778 80100.00000 0 17817378.076 15775390.139 -9143727.382 10 0 59778 81000.00000 0 16746971.831 15005514.742 -12006410.780 10 0 59778 81900.00000 0 15316841.219 14172082.628 -14635389.033 10 0 59778 82800.00000 0 13544139.167 13333840.211 -16979418.667 10 0 59778 83700.00000 0 11458776.451 12546534.461 -18992795.879 10 0 59778 84600.00000 0 9102410.360 11860453.056 -20636257.168 10 0 59778 85500.00000 0 6526945.193 11318211.777 -21877752.994 10 0 59779 0.00000 0 3792606.659 10952883.612 -22693078.834 10 0 59779 900.00000 0 965668.739 10786549.167 -23066351.282 10 0 59779 1800.00000 0 -1884068.475 10829330.595 -22990318.761 10 0 59779 2700.00000 0 -4685949.657 11078949.403 -22466502.262 10 0 59779 3600.00000 0 -7371168.740 11520827.266 -21505162.304 10 0 59779 4500.00000 0 -9875395.639 12128725.109 -20125093.554 10 0 59779 5400.00000 0 -12141215.593 12865892.941 -18353251.361 10 0 59779 6300.00000 0 -14120279.786 13686681.214 -16224217.888 10 0 59779 7200.00000 0 -15775078.113 14538544.837 -13779518.805 10 0 59779 8100.00000 0 -17080261.141 15364354.302 -11066804.445 10 0 59779 9000.00000 0 -18023457.429 16104915.447 -8138912.018 10 0 59779 9900.00000 0 -18605553.689 16701590.598 -5052827.995 10 0 59779 10800.00000 0 -18840428.139 17098909.720 -1868571.578 10 0 59779 11700.00000 0 -18754150.390 17247060.827 1351978.228 10 0 59779 12600.00000 0 -18383683.668 17104154.323 4546288.407 10 0 59779 13500.00000 0 -17775146.010 16638165.724 7652386.649 10 0 59779 14400.00000 0 -16981705.302 15828475.093 10610061.188 10 0 59779 15300.00000 0 -16061198.078 14666938.726 13362022.413 10 0 59779 16200.00000 0 -15073573.058 13158448.433 15855004.203 10 0 59779 17100.00000 0 -14078267.203 11320955.174 18040784.366 10 0 59779 18000.00000 0 -13131624.292 9184956.228 19877105.434 10 0 59779 18900.00000 0 -12284463.723 6792467.047 21328479.279 10 0 59779 19800.00000 0 -11579900.492 4195520.079 22366861.393 10 0 59779 20700.00000 0 -11051506.581 1454252.104 22972183.029 10 0 59779 21600.00000 0 -10721889.617 -1365341.845 23132732.182 10 0 59779 22500.00000 0 -10601747.337 -4193896.472 22845376.821 10 0 59779 23400.00000 0 -10689436.824 -6961304.789 22115626.516 10 0 59779 24300.00000 0 -10971076.354 -9599380.310 20957531.266 10 0 59779 25200.00000 0 -11421175.818 -12044444.456 19393418.961 10 0 59779 26100.00000 0 -12003770.001 -14239733.435 17453475.662 10 0 59779 27000.00000 0 -12674008.161 -16137526.057 15175175.571 10 0 59779 27900.00000 0 -13380134.361 -17700904.972 12602570.226 10 0 59779 28800.00000 0 -14065776.441 -18905078.382 9785449.243 10 0 59779 29700.00000 0 -14672448.285 -19738207.194 6778387.427 10 0 59779 30600.00000 0 -15142160.565 -20201702.779 3639695.529 10 0 59779 31500.00000 0 -15420029.963 -20309982.309 430294.274 10 0 59779 32400.00000 0 -15456776.306 -20089691.391 -2787466.943 10 0 59779 33300.00000 0 -15211001.148 -19578426.128 -5951023.709 10 0 59779 34200.00000 0 -14651150.173 -18823008.124 -8998818.566 10 0 59779 35100.00000 0 -13757074.571 -17877384.939 -11871506.799 10 0 59779 36000.00000 0 -12521123.300 -16800244.690 -14513121.582 10 0 59779 36900.00000 0 -10948718.048 -15652446.052 -16872174.726 10 0 59779 37800.00000 0 -9058384.537 -14494372.790 -18902670.556 10 0 59779 38700.00000 0 -6881236.855 -13383325.351 -20565012.216 10 0 59779 39600.00000 0 -4459934.949 -12371060.485 -21826781.891 10 0 59779 40500.00000 0 -1847157.669 -11501583.492 -22663379.180 10 0 59779 41400.00000 0 896345.594 -10809286.882 -23058504.810 10 0 59779 42300.00000 0 3704043.631 -10317514.354 -23004480.063 10 0 59779 43200.00000 0 6506157.223 -10037610.710 -22502395.686 10 0 59779 44100.00000 0 9232332.324 -9968497.585 -21562087.524 10 0 59779 45000.00000 0 11814341.019 -10096792.346 -20201939.576 10 0 59779 45900.00000 0 14188697.624 -10397464.379 -18448518.649 10 0 59779 46800.00000 0 16299080.953 -10835000.060 -16336048.156 10 0 59779 47700.00000 0 18098461.959 -11365026.112 -13905731.818 10 0 59779 48600.00000 0 19550848.579 -11936321.554 -11204941.092 10 0 59779 49500.00000 0 20632575.915 -12493132.020 -8286282.752 10 0 59779 50400.00000 0 21333089.045 -12977687.547 -5206565.657 10 0 59779 51300.00000 0 21655187.429 -13332816.383 -2025687.574 10 0 59779 52200.00000 0 21614722.578 -13504543.617 1194535.560 10 0 59779 53100.00000 0 21239763.677 -13444564.290 4391574.361 10 0 59779 54000.00000 0 20569268.248 -13112486.327 7503400.844 10 0 59779 54900.00000 0 19651315.488 -12477748.622 10469689.539 10 0 59779 55800.00000 0 18540978.015 -11521133.632 13232981.505 10 0 59779 56700.00000 0 17297922.450 -10235811.092 15739789.129 10 0 59779 57600.00000 0 15983840.078 -8627869.216 17941621.003 10 0 59779 58500.00000 0 14659815.376 -6716311.242 19795908.028 10 0 59779 59400.00000 0 13383742.171 -4532517.274 21266814.096 10 0 59779 60300.00000 0 12207894.676 -2119193.357 22325917.060 10 0 59779 61200.00000 0 11176753.856 471149.281 22952748.092 10 0 59779 62100.00000 0 10325178.657 3178122.861 23135180.223 10 0 59779 63000.00000 0 9676997.251 5935721.127 22869659.405 10 0 59779 63900.00000 0 9244076.137 8674814.950 22161274.080 10 0 59779 64800.00000 0 9025905.249 11325783.992 21023661.940 10 0 59779 65700.00000 0 9009716.142 13821177.276 19478755.174 10 0 59779 66600.00000 0 9171128.425 16098293.966 17556368.263 10 0 59779 67500.00000 0 9475297.851 18101578.698 15293635.058 10 0 59779 68400.00000 0 9878518.669 19784732.894 12734304.538 10 0 59779 69300.00000 0 10330213.819 21112454.674 9927907.464 10 0 59779 70200.00000 0 10775230.057 22061734.895 6928808.613 10 0 59779 71100.00000 0 11156341.929 22622654.893 3795161.780 10 0 59779 72000.00000 0 11416859.220 22798651.864 587787.052 10 0 59779 72900.00000 0 11503227.525 22606240.024 -2631008.286 10 0 59779 73800.00000 0 11367511.318 22074198.506 -5798642.365 10 0 59779 74700.00000 0 10969653.336 21242259.467 -8853480.793 10 0 59779 75600.00000 0 10279413.018 20159351.201 -11736043.726 10 0 59779 76500.00000 0 9277900.164 18881470.154 -14390173.550 10 0 59779 77400.00000 0 7958636.758 17469271.584 -16764139.257 10 0 59779 78300.00000 0 6328099.968 15985480.937 -18811655.014 10 0 59779 79200.00000 0 4405721.437 14492235.725 -20492792.188 10 0 59779 80100.00000 0 2223340.939 13048470.546 -21774766.122 10 0 59779 81000.00000 0 -175864.177 11707456.132 -22632581.769 10 0 59779 81900.00000 0 -2738930.107 10514596.606 -23049525.245 10 0 59779 82800.00000 0 -5405074.054 9505578.065 -23017491.463 10 0 59779 83700.00000 0 -8107996.259 8704946.428 -22537141.496 10 0 59779 84600.00000 0 -10778420.661 8125174.104 -21617886.710 10 0 59779 85500.00000 0 -13346768.010 7766254.174 -20277700.203 10 0 59780 0.00000 0 -15745849.662 7615838.177 -18542759.759 10 0 59780 900.00000 0 -17913470.798 7649910.450 -16446928.649 10 0 59780 1800.00000 0 -19794831.267 7833969.305 -14031087.371 10 0 59780 2700.00000 0 -21344628.371 8124663.412 -11342326.796 10 0 59780 3600.00000 0 -22528771.047 8471812.957 -8433021.351 10 0 59780 4500.00000 0 -23325635.934 8820728.603 -5359800.244 10 0 59780 5400.00000 0 -23726813.813 9114728.903 -2182437.648 10 0 59780 6300.00000 0 -23737316.689 9297748.639 1037315.798 10 0 59780 7200.00000 0 -23375238.559 9316926.993 4236936.670 10 0 59780 8100.00000 0 -22670885.946 9125065.657 7354343.724 10 0 59780 9000.00000 0 -21665416.462 8682852.840 10329100.290 10 0 59780 9900.00000 0 -20409044.034 7960759.378 13103580.670 10 0 59780 10800.00000 0 -18958887.309 6940527.236 15624078.355 10 0 59780 11700.00000 0 -17376552.099 5616188.003 17841835.285 10 0 59780 12600.00000 0 -15725549.350 3994568.778 19713973.181 10 0 59780 13500.00000 0 -14068656.358 2095264.195 21204310.226 10 0 59780 14400.00000 0 -12465330.677 -49924.663 22284048.654 10 0 59780 15300.00000 0 -10969283.627 -2398061.759 22932321.256 10 0 59780 16200.00000 0 -9626313.212 -4896614.514 23136587.459 10 0 59780 17100.00000 0 -8472485.375 -7485396.747 22892872.181 10 0 59780 18000.00000 0 -7532738.103 -10098837.123 22205843.331 10 0 59780 18900.00000 0 -6819965.481 -12668480.951 21088726.481 10 0 59780 19800.00000 0 -6334619.118 -15125623.506 19563057.908 10 0 59780 20700.00000 0 -6064843.278 -17403967.289 17658279.892 10 0 59780 21600.00000 0 -5987138.030 -19442194.436 15411184.912 10 0 59780 22500.00000 0 -6067523.014 -21186348.440 12865217.999 10 0 59780 23400.00000 0 -6263153.540 -22591926.569 10069649.320 10 0 59780 24300.00000 0 -6524321.732 -23625595.917 7078631.582 10 0 59780 25200.00000 0 -6796758.964 -24266461.059 3950159.318 10 0 59780 26100.00000 0 -7024142.821 -24506829.542 744949.443 10 0 59780 27000.00000 0 -7150702.626 -24352442.175 -2474735.608 10 0 59780 27900.00000 0 -7123812.873 -23822157.500 -5646299.419 10 0 59780 28800.00000 0 -6896463.919 -22947102.697 -8708033.740 10 0 59780 29700.00000 0 -6429503.995 -21769325.863 -11600326.840 10 0 59780 30600.00000 0 -5693555.813 -20340005.818 -14266833.604 10 0 59780 31500.00000 0 -4670524.771 -18717294.604 -16655583.449 10 0 59780 32400.00000 0 -3354632.885 -16963883.734 -18720003.535 10 0 59780 33300.00000 0 -1752932.661 -15144396.877 -20419836.343 10 0 59780 34200.00000 0 114722.685 -13322719.270 -21721932.878 10 0 59780 35100.00000 0 2216253.127 -11559376.753 -22600905.499 10 0 59780 36000.00000 0 4508447.244 -9909075.007 -23039627.217 10 0 59780 36900.00000 0 6938534.171 -8418502.822 -23029567.524 10 0 59780 37800.00000 0 9446166.949 -7124491.676 -22570958.201 10 0 59780 38700.00000 0 11965734.701 -6052608.646 -21672785.974 10 0 59780 39600.00000 0 14428906.973 -5216241.139 -20352612.375 10 0 59780 40500.00000 0 16767303.847 -4616210.879 -18636224.666 10 0 59780 41400.00000 0 18915180.153 -4240932.028 -16557124.986 10 0 59780 42300.00000 0 20812011.352 -4067105.199 -14155868.238 10 0 59780 43200.00000 0 22404873.074 -4060916.320 -11479262.173 10 0 59780 44100.00000 0 23650514.977 -4179687.904 -8579445.921 10 0 59780 45000.00000 0 24517042.615 -4373911.229 -5512865.725 10 0 59780 45900.00000 0 24985137.743 -4589571.860 -2339168.599 10 0 59780 46800.00000 0 25048767.053 -4770668.766 879963.829 10 0 59780 47700.00000 0 24715351.012 -4861819.392 4082017.793 10 0 59780 48600.00000 0 24005387.297 -4810839.741 7204862.348 10 0 59780 49500.00000 0 22951546.178 -4571189.971 10187952.913 10 0 59780 50400.00000 0 21597277.268 -4104182.130 12973499.963 10 0 59780 51300.00000 0 19994987.204 -3380857.013 15507580.601 10 0 59780 52200.00000 0 18203865.373 -2383451.299 17741172.172 10 0 59780 53100.00000 0 16287449.012 -1106393.556 19631088.831 10 0 59780 54000.00000 0 14311029.228 443212.624 21140804.224 10 0 59780 54900.00000 0 12339005.536 2245638.771 22241145.732 10 0 59780 55800.00000 0 10432298.162 4269113.383 22910848.140 10 0 59780 56700.00000 0 8645924.505 6470912.105 23136957.254 10 0 59780 57600.00000 0 7026839.080 8798912.205 22915076.582 10 0 59780 58500.00000 0 5612125.337 11193548.263 22249452.748 10 0 59780 59400.00000 0 4427613.204 13590089.652 21152898.123 10 0 59780 60300.00000 0 3486978.771 15921147.200 19646551.657 10 0 59780 61200.00000 0 2791362.943 18119306.598 17759481.750 10 0 59780 62100.00000 0 2329524.529 20119780.785 15528137.586 10 0 59780 63000.00000 0 2078521.335 21862972.128 12995658.129 10 0 59780 63900.00000 0 2004890.995 23296838.374 10211050.677 10 0 59780 64800.00000 0 2066282.338 24378963.894 7228253.467 10 0 59780 65700.00000 0 2213469.095 25078249.412 4105099.258 10 0 59780 66600.00000 0 2392661.387 25376148.660 902199.238 10 0 59780 67500.00000 0 2548017.458 25267399.192 -2318231.597 10 0 59780 68400.00000 0 2624249.165 24760215.402 -5493584.843 10 0 59780 69300.00000 0 2569210.277 23875934.342 -8562080.852 10 0 59780 70200.00000 0 2336356.917 22648128.210 -11463978.306 10 0 59780 71100.00000 0 1886974.416 21121219.751 -14142746.702 10 0 59780 72000.00000 0 1192074.549 19348658.301 -16546177.805 10 0 59780 72900.00000 0 233880.951 17390732.929 -18627413.457 10 0 59780 73800.00000 0 -993162.113 15312114.651 -20345868.737 10 0 59780 74700.00000 0 -2481902.078 13179231.305 -21668031.619 10 0 59780 75600.00000 0 -4212533.927 11057585.641 -22568122.957 10 0 59780 76500.00000 0 -6153198.701 9009129.620 -23028603.510 10 0 59780 77400.00000 0 -8261100.675 7089805.428 -23040517.923 10 0 59780 78300.00000 0 -10484097.189 5347356.344 -22603668.915 10 0 59780 79200.00000 0 -12762694.993 3819499.039 -21726618.407 10 0 59780 80100.00000 0 -15032369.633 2532533.390 -20426515.763 10 0 59780 81000.00000 0 -17226110.749 1500447.133 -18728756.849 10 0 59780 81900.00000 0 -19277086.587 724551.576 -16666480.907 10 0 59780 82800.00000 0 -21121315.878 193662.060 -14279915.579 10 0 59780 83700.00000 0 -22700235.043 -115186.370 -11615583.431 10 0 59780 84600.00000 0 -23963053.174 -235520.302 -8725386.041 10 0 59780 85500.00000 0 -24868796.186 -209759.709 -5665584.330 99